Simultaneous Nadir Overpasses (SNOs) Predictions

Prediction of SNOs between FY3D and LANDSAT-8 Satellite Orbit:

Table of predicted SNOs for the next 14.0 days since TLE Epoch: 11/21/2020
Index Date (FY3D) Time (FY3D) Lat,Lon (FY3D) SZA (FY3D ) Date (LANDSAT-8) Time (LANDSAT-8) Lat,Lon (LANDSAT-8) SZA (LANDSAT-8 ) Distance(km) Time Diff (sec)
1 11/21/2020 07:03:22 -71.67,-110.24 88.41 11/21/2020 07:04:27 -71.57,-107.43 88.49 99.09 65
2 11/21/2020 07:53:48 70.68, 58.79 90.61 11/21/2020 07:54:09 70.67, 58.78 90.60 1.13 21
3 11/21/2020 08:44:30 -70.58,-133.73 89.49 11/21/2020 08:43:39 -70.55,-133.76 89.52 3.25 51
4 11/24/2020 00:10:10 70.69, 174.69 91.18 11/24/2020 00:10:38 70.71, 174.72 91.20 2.48 28
5 11/24/2020 01:00:52 -70.59, -17.82 88.92 11/24/2020 01:00:08 -70.60, -17.82 88.91 1.10 44
6 11/26/2020 16:26:32 70.70, -69.41 91.71 11/26/2020 16:27:08 70.69, -69.43 91.70 1.52 36
7 11/26/2020 17:17:14 -70.60, 98.08 88.40 11/26/2020 17:16:38 -70.58, 98.04 88.41 2.30 36
8 11/29/2020 08:42:54 70.72, 46.49 92.19 11/29/2020 08:43:37 70.72, 46.49 92.19 0.68 43
9 11/29/2020 09:33:36 -70.61,-146.02 87.92 11/29/2020 09:33:07 -70.62,-146.03 87.91 0.87 29
10 12/02/2020 00:59:15 70.73, 162.39 92.62 12/02/2020 01:00:05 70.75, 162.41 92.64 2.02 50
11 12/02/2020 01:49:57 -70.63, -30.12 87.49 12/02/2020 01:49:35 -70.65, -30.11 87.47 2.39 22
12 12/02/2020 02:40:23 69.62, 138.74 91.53 12/02/2020 02:39:17 69.71, 136.19 91.61 98.98 66
13 12/04/2020 17:15:37 70.75, -81.72 93.01 12/04/2020 17:16:34 70.77, -81.68 93.03 2.71 57
14 12/04/2020 18:06:19 -70.64, 85.77 87.10 12/04/2020 18:06:04 -70.67, 85.80 87.08 3.34 15
